• In Belarus
  • List of Countries
  • For 7 days
  • Water Temperature
  • Satellite Maps
  • Weather Map
  • Weather Widgets
  • user-avatar
    Login

    Hourly Weather Samos

    Today, 24 September, Monday

    Time Temperature Precipitation Wind Pressure Humidity
    00:00 +21°C° 0 mm 2 mps 722 mmHg 49%
    01:00 +21°C° 0 mm 2 mps 722 mmHg 50%
    02:00 +20°C° 0 mm 2 mps 721 mmHg 52%
    03:00 +20°C° 0 mm 2 mps 721 mmHg 52%
    04:00 +20°C° 0 mm 2 mps 721 mmHg 52%
    05:00 +19°C° 0 mm 2 mps 721 mmHg 52%
    06:00 +22°C° 0 mm 1 mps 721 mmHg 48%
    07:00 +24°C° 0 mm 1 mps 721 mmHg 44%
    08:00 +26°C° 0 mm 1 mps 721 mmHg 39%
    09:00 +28°C° 0 mm 1 mps 721 mmHg 35%
    10:00 +30°C° 0 mm 1 mps 721 mmHg 31%
    11:00 +32°C° 0 mm 2 mps 721 mmHg 27%
    12:00 +32°C° 0 mm 2 mps 721 mmHg 26%
    13:00 +34°C° 0 mm 3 mps 721 mmHg 24%
    14:00 +34°C° 0 mm 3 mps 721 mmHg 23%
    15:00 +33°C° 0 mm 3 mps 720 mmHg 27%
    16:00 +30°C° 0 mm 3 mps 720 mmHg 31%
    17:00 +29°C° 0 mm 3 mps 720 mmHg 36%
    18:00 +26°C° 0 mm 2 mps 720 mmHg 47%
    19:00 +24°C° 0 mm 2 mps 720 mmHg 59%
    20:00 +21°C° 0 mm 1 mps 720 mmHg 71%
    21:00 +20°C° 0 mm 1 mps 720 mmHg 75%
    22:00 +20°C° 0 mm 1 mps 720 mmHg 78%
    23:00 +17°C° 0 mm 0 mps 720 mmHg 81%

    Tomorrow, 25 September, Tuesday

    Time Temperature Precipitation Wind Pressure Humidity
    00:00 +19°C° 0 mm 1 mps 720 mmHg 81%
    01:00 +19°C° 0 mm 1 mps 720 mmHg 81%
    02:00 +19°C° 0 mm 1 mps 720 mmHg 81%
    03:00 +17°C° 0 mm 2 mps 720 mmHg 79%
    04:00 +17°C° 0 mm 2 mps 720 mmHg 77%
    05:00 +17°C° 0 mm 3 mps 720 mmHg 74%
    06:00 +18°C° 0 mm 4 mps 720 mmHg 68%
    07:00 +20°C° 0 mm 5 mps 720 mmHg 61%
    08:00 +21°C° 0 mm 6 mps 721 mmHg 54%
    09:00 +23°C° 0 mm 6 mps 721 mmHg 47%
    10:00 +26°C° 0 mm 6 mps 721 mmHg 40%
    11:00 +28°C° 0 mm 6 mps 721 mmHg 34%
    12:00 +29°C° 0 mm 7 mps 721 mmHg 33%
    13:00 +31°C° 0 mm 8 mps 721 mmHg 32%
    14:00 +31°C° 0 mm 8 mps 721 mmHg 31%
    15:00 +29°C° 0 mm 9 mps 721 mmHg 35%
    16:00 +27°C° 0 mm 10 mps 721 mmHg 39%
    17:00 +26°C° 0 mm 11 mps 721 mmHg 43%
    18:00 +23°C° 0 mm 11 mps 721 mmHg 50%
    19:00 +19°C° 0 mm 11 mps 722 mmHg 57%
    20:00 +17°C° 0 mm 11 mps 722 mmHg 63%
    21:00 +16°C° 0 mm 11 mps 722 mmHg 66%
    22:00 +14°C° 0 mm 11 mps 722 mmHg 68%
    23:00 +13°C° 0 mm 11 mps 722 mmHg 70%

    Day after tomorrow, 26 September, Wednesday

    Time Temperature Precipitation Wind Pressure Humidity
    00:00 +13°C° 0 mm 11 mps 722 mmHg 71%
    01:00 +13°C° 0 mm 12 mps 722 mmHg 71%
    02:00 +12°C° 0 mm 12 mps 722 mmHg 71%
    03:00 +12°C° 0 mm 12 mps 722 mmHg 72%
    04:00 +12°C° 0 mm 12 mps 722 mmHg 72%
    05:00 +10°C° 0 mm 12 mps 722 mmHg 72%
    06:00 +12°C° 0 mm 12 mps 722 mmHg 67%
    07:00 +13°C° 0 mm 12 mps 722 mmHg 61%
    08:00 +14°C° 0 mm 12 mps 722 mmHg 56%
    09:00 +17°C° 0 mm 13 mps 723 mmHg 49%
    10:00 +18°C° 0 mm 13 mps 723 mmHg 42%
    11:00 +20°C° 0 mm 13 mps 723 mmHg 35%
    12:00 +22°C° 0 mm 13 mps 723 mmHg 33%
    13:00 +23°C° 0 mm 13 mps 722 mmHg 30%
    14:00 +23°C° 0 mm 13 mps 722 mmHg 28%
    15:00 +22°C° 0 mm 14 mps 722 mmHg 30%
    16:00 +20°C° 0 mm 14 mps 722 mmHg 32%
    17:00 +19°C° 0 mm 14 mps 721 mmHg 34%
    18:00 +18°C° 0 mm 14 mps 721 mmHg 39%
    19:00 +15°C° 0 mm 14 mps 721 mmHg 43%
    20:00 +13°C° 0 mm 14 mps 721 mmHg 47%
    21:00 +13°C° 0 mm 14 mps 721 mmHg 50%
    22:00 +12°C° 0 mm 14 mps 721 mmHg 52%
    23:00 +10°C° 0 mm 13 mps 721 mmHg 54%

    27 September, Thursday

    Time Temperature Precipitation Wind Pressure Humidity
    00:00 +10°C° 0 mm 13 mps 720 mmHg 53%
    01:00 +12°C° 0 mm 13 mps 720 mmHg 52%
    02:00 +12°C° 0 mm 13 mps 719 mmHg 51%
    03:00 +12°C° 0.1 mm 13 mps 719 mmHg 53%
    04:00 +12°C° 0.1 mm 13 mps 718 mmHg 56%
    05:00 +12°C° 0.1 mm 13 mps 717 mmHg 58%
    06:00 +12°C° 0.7 mm 12 mps 717 mmHg 59%
    07:00 +13°C° 0.7 mm 12 mps 717 mmHg 60%
    08:00 +13°C° 0.7 mm 11 mps 717 mmHg 61%
    09:00 +16°C° 0.5 mm 11 mps 717 mmHg 54%
    10:00 +18°C° 0.5 mm 10 mps 717 mmHg 48%
    11:00 +22°C° 0.5 mm 10 mps 717 mmHg 41%
    12:00 +21°C° 0.4 mm 9 mps 717 mmHg 46%
    13:00 +20°C° 0.4 mm 8 mps 717 mmHg 51%
    14:00 +18°C° 0.4 mm 8 mps 717 mmHg 56%
    15:00 +18°C° 0.5 mm 7 mps 717 mmHg 61%
    16:00 +17°C° 0.5 mm 7 mps 717 mmHg 67%
    17:00 +16°C° 0.5 mm 7 mps 717 mmHg 72%
    18:00 +16°C° 0.5 mm 6 mps 717 mmHg 75%
    19:00 +15°C° 0.5 mm 6 mps 718 mmHg 79%
    20:00 +14°C° 0.5 mm 6 mps 718 mmHg 82%
    21:00 +14°C° 0.3 mm 6 mps 718 mmHg 83%
    22:00 +14°C° 0.3 mm 5 mps 718 mmHg 84%
    23:00 +13°C° 0.3 mm 5 mps 718 mmHg 85%

    28 September, Friday

    Time Temperature Precipitation Wind Pressure Humidity
    00:00 +13°C° 0.3 mm 6 mps 718 mmHg 85%
    01:00 +13°C° 0.3 mm 6 mps 718 mmHg 86%
    02:00 +13°C° 0.3 mm 6 mps 718 mmHg 86%
    03:00 +13°C° 0.4 mm 6 mps 718 mmHg 85%
    04:00 +13°C° 0.4 mm 6 mps 718 mmHg 84%
    05:00 +14°C° 0.4 mm 6 mps 718 mmHg 83%
    06:00 +14°C° 0.4 mm 6 mps 718 mmHg 81%
    07:00 +15°C° 0.4 mm 6 mps 718 mmHg 79%
    08:00 +15°C° 0.4 mm 7 mps 719 mmHg 77%
    09:00 +17°C° 0.4 mm 7 mps 719 mmHg 70%
    10:00 +20°C° 0.4 mm 7 mps 719 mmHg 63%
    11:00 +21°C° 0.4 mm 8 mps 720 mmHg 56%
    12:00 +21°C° 0.6 mm 8 mps 719 mmHg 56%
    13:00 +22°C° 0.6 mm 8 mps 719 mmHg 55%
    14:00 +22°C° 0.6 mm 8 mps 719 mmHg 54%
    15:00 +21°C° 0.6 mm 8 mps 719 mmHg 56%
    16:00 +21°C° 0.6 mm 8 mps 719 mmHg 57%
    17:00 +21°C° 0.6 mm 8 mps 719 mmHg 59%
    18:00 +18°C° 0.8 mm 8 mps 719 mmHg 64%
    19:00 +17°C° 0.8 mm 8 mps 719 mmHg 69%
    20:00 +16°C° 0.8 mm 7 mps 720 mmHg 74%
    21:00 +16°C° 0.8 mm 7 mps 720 mmHg 74%
    22:00 +16°C° 0.8 mm 7 mps 720 mmHg 74%
    23:00 +16°C° 0.8 mm 7 mps 719 mmHg 75%

    29 September, Saturday

    Time Temperature Precipitation Wind Pressure Humidity
    00:00 +15°C° 1 mm 6 mps 719 mmHg 76%
    01:00 +15°C° 1 mm 6 mps 719 mmHg 77%
    02:00 +15°C° 1 mm 6 mps 719 mmHg 78%
    03:00 +15°C° 0.3 mm 6 mps 719 mmHg 79%
    04:00 +14°C° 0.3 mm 6 mps 719 mmHg 80%
    05:00 +14°C° 0.3 mm 6 mps 719 mmHg 81%
    06:00 +15°C° 0.4 mm 6 mps 719 mmHg 77%
    07:00 +16°C° 0.4 mm 6 mps 719 mmHg 74%
    08:00 +16°C° 0.4 mm 5 mps 719 mmHg 70%
    09:00 +17°C° 1.2 mm 5 mps 719 mmHg 71%
    10:00 +18°C° 1.2 mm 4 mps 720 mmHg 72%
    11:00 +18°C° 1.2 mm 3 mps 720 mmHg 73%
    12:00 +18°C° 1.6 mm 3 mps 719 mmHg 75%
    13:00 +18°C° 1.6 mm 2 mps 719 mmHg 77%
    14:00 +17°C° 1.6 mm 2 mps 719 mmHg 79%
    15:00 +19°C° 0.4 mm 1 mps 719 mmHg 77%
    16:00 +19°C° 0.4 mm 1 mps 719 mmHg 75%
    17:00 +19°C° 0.4 mm 1 mps 719 mmHg 73%
    18:00 +18°C° 0.1 mm 1 mps 720 mmHg 77%
    19:00 +16°C° 0.1 mm 1 mps 720 mmHg 81%
    20:00 +15°C° 0.1 mm 1 mps 720 mmHg 85%
    21:00 +15°C° 0.1 mm 1 mps 720 mmHg 86%
    22:00 +15°C° 0.1 mm 1 mps 720 mmHg 87%
    23:00 +15°C° 0.1 mm 1 mps 720 mmHg 88%
    Show more